• In Hungary
  • List of Countries
  • For 7 days
  • Water Temperature
  • Satellite Maps
  • Weather Map
  • News
  • Weather Widgets
  • user-avatar
    Login

    Hourly Weather Karandeevka

    Today, 15 August, Wednesday

    Time Temperature Precipitation Wind Pressure Humidity
    00:00 +17°C° 0 mm 2 mps 747 mmHg 80%
    01:00 +17°C° 0 mm 2 mps 747 mmHg 78%
    02:00 +17°C° 0 mm 2 mps 747 mmHg 77%
    03:00 +17°C° 0 mm 2 mps 747 mmHg 75%
    04:00 +17°C° 0 mm 3 mps 747 mmHg 74%
    05:00 +17°C° 0 mm 3 mps 747 mmHg 74%
    06:00 +17°C° 0 mm 3 mps 747 mmHg 73%
    07:00 +19°C° 0 mm 4 mps 747 mmHg 69%
    08:00 +20°C° 0 mm 5 mps 746 mmHg 65%
    09:00 +22°C° 0 mm 5 mps 746 mmHg 61%
    10:00 +24°C° 0.1 mm 6 mps 746 mmHg 59%
    11:00 +26°C° 0.1 mm 6 mps 746 mmHg 58%
    12:00 +28°C° 0.1 mm 6 mps 745 mmHg 57%
    13:00 +28°C° 0.2 mm 6 mps 745 mmHg 55%
    14:00 +29°C° 0.2 mm 6 mps 745 mmHg 53%
    15:00 +30°C° 0.2 mm 7 mps 745 mmHg 51%
    16:00 +29°C° 0 mm 6 mps 745 mmHg 54%
    17:00 +29°C° 0 mm 5 mps 744 mmHg 56%
    18:00 +28°C° 0 mm 5 mps 744 mmHg 59%
    19:00 +27°C° 0.1 mm 4 mps 744 mmHg 63%
    20:00 +25°C° 0.1 mm 4 mps 744 mmHg 67%
    21:00 +23°C° 0.1 mm 4 mps 744 mmHg 72%
    22:00 +22°C° 0.5 mm 4 mps 744 mmHg 76%
    23:00 +21°C° 0.5 mm 3 mps 744 mmHg 81%

    Tomorrow, 16 August, Thursday

    Time Temperature Precipitation Wind Pressure Humidity
    00:00 +20°C° 0.5 mm 2 mps 744 mmHg 85%
    01:00 +19°C° 0.2 mm 2 mps 744 mmHg 87%
    02:00 +19°C° 0.2 mm 2 mps 745 mmHg 89%
    03:00 +18°C° 0.2 mm 2 mps 745 mmHg 91%
    04:00 +18°C° 0.1 mm 2 mps 745 mmHg 91%
    05:00 +18°C° 0.1 mm 2 mps 745 mmHg 92%
    06:00 +18°C° 0.1 mm 2 mps 745 mmHg 92%
    07:00 +19°C° 0 mm 2 mps 745 mmHg 88%
    08:00 +21°C° 0 mm 2 mps 745 mmHg 83%
    09:00 +23°C° 0 mm 2 mps 746 mmHg 78%
    10:00 +24°C° 0 mm 2 mps 746 mmHg 73%
    11:00 +25°C° 0 mm 2 mps 746 mmHg 68%
    12:00 +26°C° 0 mm 2 mps 746 mmHg 63%
    13:00 +26°C° 0.1 mm 2 mps 746 mmHg 63%
    14:00 +26°C° 0.1 mm 2 mps 746 mmHg 62%
    15:00 +26°C° 0.1 mm 2 mps 746 mmHg 62%
    16:00 +26°C° 0.4 mm 2 mps 746 mmHg 65%
    17:00 +26°C° 0.4 mm 2 mps 746 mmHg 68%
    18:00 +25°C° 0.4 mm 2 mps 746 mmHg 71%
    19:00 +24°C° 0.9 mm 2 mps 746 mmHg 77%
    20:00 +21°C° 0.9 mm 2 mps 746 mmHg 82%
    21:00 +20°C° 0.9 mm 2 mps 747 mmHg 88%
    22:00 +19°C° 0.1 mm 2 mps 747 mmHg 90%
    23:00 +19°C° 0.1 mm 2 mps 747 mmHg 92%

    Day after tomorrow, 17 August, Friday

    Time Temperature Precipitation Wind Pressure Humidity
    00:00 +18°C° 0.1 mm 2 mps 747 mmHg 93%
    01:00 +18°C° 0 mm 2 mps 747 mmHg 94%
    02:00 +17°C° 0 mm 3 mps 747 mmHg 95%
    03:00 +17°C° 0 mm 3 mps 748 mmHg 97%
    04:00 +16°C° 0 mm 3 mps 748 mmHg 96%
    05:00 +16°C° 0 mm 3 mps 748 mmHg 96%
    06:00 +16°C° 0 mm 3 mps 748 mmHg 96%
    07:00 +17°C° 0 mm 4 mps 749 mmHg 91%
    08:00 +18°C° 0 mm 4 mps 749 mmHg 85%
    09:00 +19°C° 0 mm 4 mps 749 mmHg 80%
    10:00 +20°C° 0 mm 4 mps 749 mmHg 74%
    11:00 +22°C° 0 mm 4 mps 749 mmHg 68%
    12:00 +23°C° 0 mm 5 mps 749 mmHg 62%
    13:00 +23°C° 0 mm 4 mps 749 mmHg 59%
    14:00 +25°C° 0 mm 4 mps 749 mmHg 57%
    15:00 +25°C° 0 mm 4 mps 749 mmHg 54%
    16:00 +25°C° 0 mm 4 mps 749 mmHg 56%
    17:00 +25°C° 0 mm 3 mps 749 mmHg 58%
    18:00 +24°C° 0 mm 3 mps 749 mmHg 60%
    19:00 +22°C° 0 mm 3 mps 749 mmHg 63%
    20:00 +20°C° 0 mm 3 mps 750 mmHg 66%
    21:00 +18°C° 0 mm 3 mps 750 mmHg 69%
    22:00 +17°C° 0 mm 3 mps 750 mmHg 71%
    23:00 +17°C° 0 mm 3 mps 750 mmHg 72%

    18 August, Saturday

    Time Temperature Precipitation Wind Pressure Humidity
    00:00 +16°C° 0 mm 3 mps 751 mmHg 74%
    01:00 +14°C° 0 mm 3 mps 751 mmHg 76%
    02:00 +14°C° 0 mm 3 mps 751 mmHg 78%
    03:00 +14°C° 0 mm 2 mps 751 mmHg 80%
    04:00 +14°C° 0 mm 2 mps 751 mmHg 81%
    05:00 +14°C° 0 mm 2 mps 752 mmHg 81%
    06:00 +13°C° 0 mm 2 mps 752 mmHg 82%
    07:00 +15°C° 0 mm 2 mps 752 mmHg 75%
    08:00 +17°C° 0 mm 3 mps 752 mmHg 69%
    09:00 +19°C° 0 mm 3 mps 753 mmHg 62%
    10:00 +20°C° 0 mm 3 mps 752 mmHg 56%
    11:00 +21°C° 0 mm 3 mps 752 mmHg 51%
    12:00 +24°C° 0 mm 3 mps 752 mmHg 45%
    13:00 +24°C° 0 mm 3 mps 752 mmHg 43%
    14:00 +24°C° 0 mm 3 mps 752 mmHg 42%
    15:00 +25°C° 0 mm 3 mps 752 mmHg 40%
    16:00 +24°C° 0 mm 2 mps 752 mmHg 44%
    17:00 +24°C° 0 mm 2 mps 752 mmHg 47%
    18:00 +24°C° 0 mm 2 mps 752 mmHg 50%
    19:00 +21°C° 0 mm 2 mps 752 mmHg 53%
    20:00 +19°C° 0 mm 2 mps 752 mmHg 56%
    21:00 +17°C° 0 mm 2 mps 752 mmHg 59%
    22:00 +16°C° 0 mm 2 mps 752 mmHg 61%
    23:00 +15°C° 0 mm 2 mps 752 mmHg 63%

    19 August, Sunday

    Time Temperature Precipitation Wind Pressure Humidity
    00:00 +15°C° 0 mm 2 mps 752 mmHg 65%
    01:00 +14°C° 0 mm 2 mps 752 mmHg 67%
    02:00 +14°C° 0 mm 2 mps 752 mmHg 70%
    03:00 +13°C° 0 mm 2 mps 752 mmHg 72%
    04:00 +13°C° 0 mm 2 mps 752 mmHg 74%
    05:00 +13°C° 0 mm 1 mps 752 mmHg 76%
    06:00 +13°C° 0 mm 1 mps 753 mmHg 78%
    07:00 +15°C° 0 mm 2 mps 753 mmHg 72%
    08:00 +17°C° 0 mm 2 mps 753 mmHg 66%
    09:00 +19°C° 0 mm 2 mps 752 mmHg 61%
    10:00 +20°C° 0 mm 2 mps 752 mmHg 56%
    11:00 +21°C° 0 mm 2 mps 752 mmHg 50%
    12:00 +22°C° 0 mm 3 mps 752 mmHg 45%
    13:00 +24°C° 0 mm 3 mps 751 mmHg 44%
    14:00 +24°C° 0 mm 3 mps 751 mmHg 42%
    15:00 +24°C° 0 mm 3 mps 751 mmHg 41%
    16:00 +24°C° 0 mm 3 mps 750 mmHg 45%
    17:00 +24°C° 0 mm 2 mps 750 mmHg 49%
    18:00 +23°C° 0 mm 2 mps 750 mmHg 53%
    19:00 +20°C° 0 mm 2 mps 750 mmHg 57%
    20:00 +19°C° 0 mm 2 mps 750 mmHg 61%
    21:00 +17°C° 0 mm 2 mps 750 mmHg 65%
    22:00 +16°C° 0 mm 2 mps 749 mmHg 66%
    23:00 +16°C° 0 mm 2 mps 749 mmHg 68%

    20 August, Monday

    Time Temperature Precipitation Wind Pressure Humidity
    00:00 +15°C° 0 mm 2 mps 749 mmHg 69%
    01:00 +15°C° 0 mm 2 mps 749 mmHg 71%
    02:00 +15°C° 0 mm 2 mps 749 mmHg 72%
    03:00 +14°C° 0 mm 2 mps 749 mmHg 73%
    04:00 +14°C° 0 mm 2 mps 749 mmHg 74%
    05:00 +13°C° 0 mm 3 mps 749 mmHg 74%
    06:00 +13°C° 0 mm 3 mps 749 mmHg 75%
    07:00 +16°C° 0 mm 3 mps 749 mmHg 71%
    08:00 +18°C° 0 mm 3 mps 749 mmHg 66%
    09:00 +20°C° 0 mm 3 mps 748 mmHg 61%
    10:00 +21°C° 0 mm 3 mps 748 mmHg 57%
    11:00 +22°C° 0 mm 4 mps 748 mmHg 53%
    12:00 +25°C° 0 mm 4 mps 748 mmHg 49%
    13:00 +25°C° 0 mm 4 mps 748 mmHg 48%
    14:00 +25°C° 0 mm 4 mps 748 mmHg 48%
    15:00 +26°C° 0 mm 4 mps 747 mmHg 47%
    16:00 +25°C° 0 mm 3 mps 747 mmHg 51%
    17:00 +25°C° 0 mm 3 mps 747 mmHg 55%
    18:00 +25°C° 0 mm 3 mps 747 mmHg 58%
    19:00 +23°C° 0.1 mm 2 mps 747 mmHg 64%
    20:00 +20°C° 0.1 mm 2 mps 747 mmHg 69%
    21:00 +19°C° 0.1 mm 2 mps 747 mmHg 75%
    22:00 +18°C° 0.4 mm 2 mps 747 mmHg 80%
    23:00 +18°C° 0.4 mm 2 mps 746 mmHg 84%
    Show more